N1MJL-13 Weather Reports


Display with metric or nautical units.
time (UTC)temp
F
wind
direction
speed
MPH
gust
MPH
rain 1hr
in
rain 24hr
in
rain mn
in
humidity
%
barometer
mb
20190923131946 71 87 0.0 1.0 0.00 0.00 0.00 89 1010.4
20190923130916 70 92 0.0 1.0 0.00 0.00 0.00 90 1010.5
20190923125846 70 104 1.0 2.0 0.00 0.00 0.00 91 1010.6
20190923124815 69 58 0.0 1.0 0.00 0.00 0.00 92 1010.6
20190923123746 68 58 0.0 2.0 0.00 0.00 0.00 93 1010.6
20190923122715 68 57 1.0 2.0 0.00 0.00 0.00 94 1010.7
20190923121645 67 0.0 0.0 0.00 0.00 0.00 94 1010.7
20190923120615 67 69 0.0 1.0 0.00 0.00 0.00 94 1010.8
20190923115545 67 69 1.0 2.0 0.00 0.00 0.00 94 1010.8
20190923114516 67 67 0.0 1.0 0.00 0.00 0.00 94 1010.7
20190923113445 67 67 0.0 2.0 0.00 0.00 0.00 94 1010.7
20190923112415 67 24 1.0 1.0 0.00 0.00 0.00 93 1010.8
20190923111346 67 32 1.0 2.0 0.00 0.00 0.00 93 1010.8
20190923110315 67 0.0 0.0 0.00 0.00 0.00 93 1010.8
20190923105245 67 83 0.0 1.0 0.00 0.00 0.00 93 1010.9
20190923104215 67 83 1.0 2.0 0.00 0.00 0.00 93 1010.9
20190923103145 67 83 1.0 2.0 0.00 0.00 0.00 93 1011.0
20190923102115 67 83 0.0 1.0 0.00 0.00 0.00 93 1011.0
20190923101045 67 83 1.0 2.0 0.00 0.00 0.00 93 1011.1
20190923100015 67 84 1.0 3.0 0.00 0.00 0.00 93 1010.9
20190923094945 67 84 1.0 2.0 0.00 0.00 0.00 93 1011.0
20190923093915 67 84 0.0 2.0 0.00 0.00 0.00 92 1011.0
20190923092845 67 90 1.0 1.0 0.00 0.00 0.00 92 1011.0
20190923091815 67 90 1.0 2.0 0.00 0.00 0.00 92 1011.0
20190923090745 67 90 1.0 1.0 0.00 0.00 0.00 92 1011.1
20190923085715 67 91 1.0 2.0 0.00 0.00 0.00 91 1011.1
20190923084645 67 91 1.0 2.0 0.00 0.00 0.00 91 1011.3
20190923083615 67 0.0 0.0 0.00 0.00 0.00 91 1011.3
20190923082545 67 0.0 0.0 0.00 0.00 0.00 91 1011.4
20190923081515 67 0.0 0.0 0.00 0.00 0.00 90 1011.5
20190923080445 68 0.0 0.0 0.00 0.00 0.00 90 1011.6
20190923075415 68 91 0.0 2.0 0.00 0.00 0.00 90 1011.6
20190923074346 68 91 0.0 1.0 0.00 0.00 0.00 90 1011.8
20190923073315 68 91 0.0 1.0 0.00 0.00 0.00 90 1011.8
20190923072245 68 89 1.0 2.0 0.00 0.00 0.00 90 1011.8
20190923071215 68 69 1.0 2.0 0.00 0.00 0.00 89 1011.9
20190923070147 68 0.0 0.0 0.00 0.00 0.00 89 1012.1
20190923065117 68 0.0 0.0 0.00 0.00 0.00 88 1012.1
20190923064047 68 0.0 0.0 0.00 0.00 0.00 88 1012.1
20190923063017 68 0.0 1.0 0.00 0.00 0.00 88 1012.3
20190923061947 68 0.0 0.0 0.00 0.00 0.00 88 1012.4
20190923060917 67 65 0.0 2.0 0.00 0.00 0.00 88 1012.6
20190923055847 67 62 0.0 2.0 0.00 0.00 0.00 87 1012.6
20190923054816 68 62 0.0 4.0 0.00 0.00 0.00 87 1012.8
20190923053747 68 0.0 0.0 0.00 0.00 0.00 87 1012.9
20190923052716 68 0.0 0.0 0.00 0.00 0.00 86 1013.0
20190923051647 68 0.0 0.0 0.00 0.00 0.00 86 1013.2
20190923050617 68 79 0.0 2.0 0.00 0.00 0.00 86 1013.3
20190923045547 68 0.0 0.0 0.00 0.00 0.00 86 1013.4
20190923044516 68 79 0.0 1.0 0.00 0.00 0.00 86 1013.4
20190923043447 68 0.0 1.0 0.00 0.00 0.00 86 1013.4
20190923042416 68 67 2.0 4.0 0.00 0.00 0.00 86 1013.5
20190923041347 68 27 2.0 4.0 0.00 0.00 0.00 87 1013.6
20190923040316 68 60 0.0 1.0 0.00 0.00 0.00 87 1013.8
20190923035246 68 60 1.0 2.0 0.00 0.00 0.00 87 1013.9
20190923034215 68 60 1.0 2.0 0.00 0.00 0.00 87 1014.0
20190923033146 68 60 1.0 1.0 0.00 0.00 0.00 86 1014.1
20190923032115 68 60 0.0 1.0 0.00 0.00 0.00 86 1014.2
20190923031046 68 60 0.0 1.0 0.00 0.00 0.00 86 1014.2
20190923030015 69 60 0.0 2.0 0.00 0.00 0.00 86 1014.4
20190923024945 69 0.0 0.0 0.00 0.00 0.00 86 1014.3
20190923023916 69 0.0 0.0 0.00 0.00 0.00 85 1014.5
20190923022845 69 0.0 0.0 0.00 0.00 0.00 85 1014.5
20190923021815 69 0.0 0.0 0.00 0.00 0.00 84 1014.7
20190923020745 70 75 1.0 2.0 0.00 0.00 0.00 84 1014.8
20190923015715 70 75 1.0 1.0 0.00 0.00 0.00 84 1014.9
20190923014645 70 0.0 0.0 0.00 0.00 0.00 83 1015.0
20190923013616 70 0.0 0.0 0.00 0.00 0.00 83 1015.0
20190923012545 70 0.0 0.0 0.00 0.00 0.00 82 1015.0
20190923011516 70 0.0 1.0 0.00 0.00 0.00 81 1015.2
20190923010445 70 0.0 0.0 0.00 0.00 0.00 81 1015.2
20190923005415 70 0.0 0.0 0.00 0.00 0.00 80 1015.1
20190923004345 70 0.0 0.0 0.00 0.00 0.00 80 1015.2
20190923003315 71 75 0.0 1.0 0.00 0.00 0.00 79 1015.2
20190923002245 71 75 1.0 2.0 0.00 0.00 0.00 79 1015.2
20190923001215 71 0.0 0.0 0.00 0.00 0.00 78 1015.1
20190923000145 71 0.0 0.0 0.00 0.00 0.00 78 1015.2
20190922235115 71 0.0 0.0 0.00 0.00 0.00 77 1015.2
20190922234045 72 0.0 0.0 0.00 0.00 0.00 77 1015.1
20190922233015 72 0.0 0.0 0.00 0.00 0.00 76 1015.1
20190922231945 73 0.0 0.0 0.00 0.00 0.00 75 1015.1
20190922230915 73 0.0 0.0 0.00 0.00 0.00 74 1015.0
20190922225845 74 0.0 0.0 0.00 0.00 0.00 73 1015.2
20190922224815 75 0.0 0.0 0.00 0.00 0.00 72 1015.2
20190922223745 75 0.0 0.0 0.00 0.00 0.00 70 1015.2
20190922222715 76 80 0.0 1.0 0.00 0.00 0.00 68 1015.2
20190922221645 76 0.0 0.0 0.00 0.00 0.00 67 1015.2
20190922220615 77 80 0.0 1.0 0.00 0.00 0.00 66 1015.3
20190922215547 77 0.0 0.0 0.00 0.00 0.00 65 1015.3
20190922214515 78 75 0.0 1.0 0.00 0.00 0.00 64 1015.3
20190922213445 78 76 0.0 1.0 0.00 0.00 0.00 63 1015.3
20190922212415 79 76 0.0 2.0 0.00 0.00 0.00 61 1015.4
20190922211345 79 76 0.0 1.0 0.00 0.00 0.00 60 1015.6
20190922210317 80 80 0.0 2.0 0.00 0.00 0.00 59 1015.7
20190922205247 80 82 0.0 4.0 0.00 0.00 0.00 56 1015.7
20190922204216 80 60 0.0 4.0 0.00 0.00 0.00 57 1015.8
20190922203147 80 277 1.0 2.0 0.00 0.00 0.00 57 1015.8
20190922202117 81 0.0 0.0 0.00 0.00 0.00 57 1015.8
20190922201047 81 142 1.0 2.0 0.00 0.00 0.00 58 1016.0
20190922200015 81 74 0.0 2.0 0.00 0.00 0.00 55 1016.1
20190922194946 81 81 0.0 1.0 0.00 0.00 0.00 54 1016.3
20190922193916 82 17 1.0 3.0 0.00 0.00 0.00 51 1016.3
20190922192847 82 86 1.0 3.0 0.00 0.00 0.00 50 1016.5
20190922191817 82 304 0.0 2.0 0.00 0.00 0.00 49 1016.6
20190922190747 81 11 0.0 5.0 0.00 0.00 0.00 47 1016.9
20190922185716 81 85 0.0 1.0 0.00 0.00 0.00 47 1017.1
20190922184646 81 269 0.0 2.0 0.00 0.00 0.00 48 1017.1
20190922183617 82 342 1.0 4.0 0.00 0.00 0.00 44 1017.3
20190922182546 82 282 0.0 1.0 0.00 0.00 0.00 43 1017.3
20190922181516 82 75 1.0 4.0 0.00 0.00 0.00 42 1017.3
20190922180446 81 68 1.0 2.0 0.00 0.00 0.00 43 1017.5
20190922175416 81 38 2.0 5.0 0.00 0.00 0.00 49 1017.6
20190922174346 81 109 0.0 1.0 0.00 0.00 0.00 51 1017.7
20190922173316 81 73 1.0 2.0 0.00 0.00 0.00 52 1017.8
20190922172246 80 253 0.0 2.0 0.00 0.00 0.00 50 1017.8
20190922171216 81 152 1.0 3.0 0.00 0.00 0.00 50 1018.0
20190922170146 80 45 1.0 6.0 0.00 0.00 0.00 51 1018.2
20190922165116 80 69 1.0 4.0 0.00 0.00 0.00 53 1018.5
20190922164046 80 117 2.0 4.0 0.00 0.00 0.00 54 1018.6
20190922163016 79 80 1.0 3.0 0.00 0.00 0.00 55 1018.8
20190922161946 78 113 1.0 2.0 0.00 0.00 0.00 60 1018.8
20190922160916 78 63 0.0 4.0 0.00 0.00 0.00 63 1018.9
20190922155846 77 299 1.0 2.0 0.00 0.00 0.00 65 1019.1
20190922154816 76 66 0.0 2.0 0.00 0.00 0.00 67 1019.2
20190922153746 75 309 1.0 2.0 0.00 0.00 0.00 68 1019.4
20190922152716 74 0.0 1.0 0.00 0.00 0.00 72 1019.6
20190922151646 73 350 1.0 2.0 0.00 0.00 0.00 71 1019.5
20190922150616 72 0.0 0.0 0.00 0.00 0.00 77 1019.7
20190922145546 71 18 0.0 1.0 0.00 0.00 0.00 79 1019.7
20190922144516 70 38 0.0 1.0 0.00 0.00 0.00 80 1019.9
20190922143446 69 38 1.0 2.0 0.00 0.00 0.00 81 1019.9
20190922142416 67 0.0 0.0 0.00 0.00 0.00 84 1020.1
20190922141346 66 355 0.0 2.0 0.00 0.00 0.00 87 1020.2
20190922140316 65 0.0 0.0 0.00 0.00 0.00 92 1020.2
20190922135246 64 0.0 0.0 0.00 0.00 0.00 92 1020.3
20190922134216 63 0.0 0.0 0.00 0.00 0.00 95 1020.4
20190922133146 62 0.0 0.0 0.00 0.00 0.00 97 1020.3